Other Public Products
Issued by NWS Charleston, SC

Current Version | Previous Version | Text Only | Print | Product List | Glossary Off
Versions: 1 2 3 4 5 6 7 8 9 10 11 12 13 14 15 16 17 18 19 20 21 22 23 24 25 26 27 28 29 30 31 32 33 34 35 36 37 38 39 40 41 42 43 44 45 46 47 48 49 50

000
FPUS82 KCHS 231727
OPUCHS

TEST...KCHS/KSAV Gateway Observations...TEST
National Weather Service Charleston SC
1200 PM EST THU NOV 23 2017

NOTE: "fair" indicates few or no clouds below 12,000 feet with no
significant weather and/or obstructions to visibility.

SCZ050-WAZ558-NCZ071-TXZ119-213-PAZ071-DCZ001-FLZ074-172-MI076-
NYZ176-178-MAZ016-IL014-TNZ027-NJZ106-GAZ044-MD014-231800-

...Gateway Observations for Charleston International...

CITY           SKY/WX    TMP DP  RH WIND       PRES   REMARKS
Chas Airport   LGT RAIN  48  47  96 N7        30.05F
Seattle        LGT RAIN  53  52  96 S13       29.82S FOG
Charlotte      MOSUNNY   50  28  42 VRB5      30.12F
Dallas DFW     MOSUNNY   58  27  30 S6        30.16F
Dallas Love    MOSUNNY   56  25  30 SW5       30.18F
Philladelphia  MOSUNNY   39  17  41 NW8       30.11F WCI  33
Wash National  MOSUNNY   42  22  44 NW9       30.14F
Baltimore      MOSUNNY   43  24  47 NW9       30.11F
Miami          PTSUNNY   81  72  74 SE10G24   29.86F
Detroit        CLOUDY    34  25  69 SW14      30.06F WCI  25
Newark         MOSUNNY   42  19  39 N5        30.08F
Laguardia      MOSUNNY   40  20  44 N8        30.07F WCI  34
J F K          MOSUNNY   39  20  46 VRB3      30.08F
Boston Logan   MOSUNNY   40  18  41 W13       30.00F WCI  32
Ft. Lauderdale LGT RAIN  77  71  82 SE9       29.86F
Chicago O`Hare MOSUNNY   41  21  44 SW12G21   29.97F
Chicago Midway MOSUNNY   43  22  43 SW15      29.98F
Houston Bush   MOSUNNY   56  36  47 CALM      30.20F
Houston Hobby  MOSUNNY   57  34  41 VRB3      30.20F
Nashville      SUNNY     46  26  45 CALM      30.14F
Atlanta        MOSUNNY   55  35  47 E8        30.05F

$$

GAZ044-118-TXZ119-213-NCZ071-DCZ001-MDZ014-506-PAZ021-071-NJZ106-
NYZ176-178-MAZ106-OHZ011-021-055-MIZ076-KYZ091-ILZ014-INZ047-
MNZ060-ONZ431-231800-

...Gateway Observations for Savannah International...

CITY           SKY/WX    TMP DP  RH WIND       PRES   REMARKS
Savannah Arpt  RAIN      49  48  97 NE7       30.03F FOG
Atlanta        MOSUNNY   55  35  47 E8        30.05F
Charlotte      MOSUNNY   50  28  42 VRB5      30.12F
Dallas DFW     MOSUNNY   58  27  30 S6        30.16F
Houston Bush   MOSUNNY   56  36  47 CALM      30.20F
Wash National  MOSUNNY   42  22  44 NW9       30.14F
Wash Dulles    MOSUNNY   41  22  46 W9        30.13F
Baltimore      MOSUNNY   43  24  47 NW9       30.11F
Philadelphia   MOSUNNY   39  17  41 NW8       30.11F WCI  33
Newark         MOSUNNY   42  19  39 N5        30.08F
Laguardia      MOSUNNY   40  20  44 N8        30.07F WCI  34
J F K          MOSUNNY   39  20  46 VRB3      30.08F
Boston         MOSUNNY   40  18  41 W13       30.00F WCI  32
Pittsburg      CLOUDY    35  22  58 W5        30.09F WCI  31
Akron          PTSUNNY   35  22  58 SW7       30.09F WCI  29
Cleveland      CLOUDY    38  24  57 S9        30.10F WCI  31
Cincinnati     PTSUNNY   40  28  62 S8        30.11F WCI  34
Columbus       SUNNY     37  26  63 SW5       30.11F WCI  33
Detroit        CLOUDY    34  25  69 SW14      30.06F WCI  25
Chicago O`Hare MOSUNNY   41  21  44 SW12G21   29.97F
Minneapolis    MOSUNNY   35  21  56 S3        29.95S
Indianapolis   CLOUDY    39  24  55 SW8       30.09F WCI  33
Toronto Canada CLOUDY    36  21  55 W14       29.99F WCI  27

$$




USA.gov is the U.S. government's official web portal to all federal, state and local government web resources and services.